RYR29UZ LOWW-EGSS

Flight info

Callsign RYR29UZ
Flight time 1h 50m
Altitude 38000
Route BUWUT DCT DITIS DCT OKG DCT VELIS DCT SWALM DCT NOGRO M40 RINIS
Aircraft A320/M-SDE3FGHIRWY/LB1

Departure

Time 2026-04-22 12:14
Airport Vienna International Airport (LOWW)

Arrival

Time 2026-04-22 14:05
Airport London Stansted Airport (EGSS)
Time Latitude Longitude Altitude Speed Heading
2026-04-22 11:48 48.12100 16.55317 618 ft 0 kts 295°
2026-04-22 12:01 48.12097 16.55325 610 ft 4 kts 292°
2026-04-22 12:02 48.12091 16.55363 622 ft 4 kts 266°
2026-04-22 12:02 48.12098 16.55400 621 ft 4 kts 234°
2026-04-22 12:02 48.12111 16.55420 626 ft 1 kts 206°
2026-04-22 12:02 48.12088 16.55403 620 ft 4 kts 206°
2026-04-22 12:03 48.12064 16.55385 615 ft 4 kts 206°
2026-04-22 12:03 48.12046 16.55373 610 ft 0 kts 205°
2026-04-22 12:06 48.12044 16.55371 610 ft 2 kts 205°
2026-04-22 12:06 48.12003 16.55343 621 ft 10 kts 205°
2026-04-22 12:07 48.11952 16.55293 612 ft 8 kts 243°
2026-04-22 12:07 48.11951 16.55221 613 ft 6 kts 259°
2026-04-22 12:07 48.11924 16.55184 614 ft 5 kts 203°
2026-04-22 12:07 48.11876 16.55224 613 ft 11 kts 118°
2026-04-22 12:08 48.11844 16.55325 620 ft 10 kts 115°
2026-04-22 12:08 48.11806 16.55446 610 ft 16 kts 116°
2026-04-22 12:08 48.11748 16.55626 612 ft 22 kts 116°
2026-04-22 12:08 48.11683 16.55819 614 ft 20 kts 116°
2026-04-22 12:09 48.11626 16.55996 616 ft 18 kts 116°
2026-04-22 12:09 48.11574 16.56155 612 ft 16 kts 116°
2026-04-22 12:09 48.11526 16.56303 621 ft 15 kts 116°
2026-04-22 12:09 48.11483 16.56434 620 ft 14 kts 116°
2026-04-22 12:10 48.11430 16.56597 612 ft 22 kts 115°
2026-04-22 12:10 48.11352 16.56842 621 ft 29 kts 115°
2026-04-22 12:10 48.11259 16.57123 618 ft 31 kts 116°
2026-04-22 12:10 48.11166 16.57408 623 ft 26 kts 116°
2026-04-22 12:11 48.11101 16.57607 613 ft 15 kts 115°
2026-04-22 12:11 48.11027 16.57639 610 ft 12 kts 204°
2026-04-22 12:11 48.10959 16.57584 613 ft 10 kts 206°
2026-04-22 12:11 48.10920 16.57521 615 ft 8 kts 286°
2026-04-22 12:12 48.10929 16.57490 615 ft 0 kts 294°
2026-04-22 12:13 48.11029 16.57181 620 ft 70 kts 296°
2026-04-22 12:13 48.11334 16.56246 620 ft 128 kts 295°
2026-04-22 12:14 48.11797 16.54823 656 ft 170 kts 295°
2026-04-22 12:14 48.12266 16.53284 1472 ft 161 kts 294°
2026-04-22 12:14 48.12367 16.51554 2041 ft 177 kts 268°
2026-04-22 12:14 48.12138 16.49652 2372 ft 200 kts 262°
2026-04-22 12:15 48.11814 16.47512 2733 ft 223 kts 265°
2026-04-22 12:15 48.11847 16.45113 3127 ft 243 kts 281°
2026-04-22 12:15 48.12081 16.42539 3872 ft 253 kts 283°
2026-04-22 12:15 48.12346 16.39922 4802 ft 255 kts 283°
2026-04-22 12:16 48.12621 16.37277 5733 ft 259 kts 283°
2026-04-22 12:16 48.12900 16.34599 6661 ft 262 kts 282°
2026-04-22 12:16 48.13185 16.31884 7511 ft 267 kts 282°
2026-04-22 12:16 48.13477 16.29116 8314 ft 272 kts 283°
2026-04-22 12:17 48.13773 16.26290 9146 ft 277 kts 282°
2026-04-22 12:17 48.14262 16.23506 9938 ft 279 kts 297°
2026-04-22 12:17 48.15256 16.21022 10696 ft 279 kts 313°
2026-04-22 12:17 48.16715 16.18981 10986 ft 297 kts 329°
2026-04-22 12:18 48.18588 16.17513 11377 ft 311 kts 337°
2026-04-22 12:18 48.20561 16.16088 12061 ft 317 kts 336°
2026-04-22 12:18 48.22554 16.14625 12847 ft 321 kts 336°
2026-04-22 12:18 48.24574 16.13130 13623 ft 325 kts 336°
2026-04-22 12:19 48.26611 16.11616 14326 ft 329 kts 336°
2026-04-22 12:19 48.28674 16.10077 14982 ft 333 kts 336°
2026-04-22 12:19 48.30763 16.08520 15629 ft 337 kts 336°
2026-04-22 12:19 48.32848 16.06963 16267 ft 340 kts 336°
2026-04-22 12:20 48.34978 16.05374 16916 ft 344 kts 337°
2026-04-22 12:20 48.37132 16.03769 17541 ft 347 kts 337°
2026-04-22 12:20 48.39313 16.02144 18195 ft 351 kts 337°
2026-04-22 12:20 48.41507 16.00504 18770 ft 354 kts 337°
2026-04-22 12:21 48.43724 15.98845 19326 ft 357 kts 337°
2026-04-22 12:21 48.45961 15.97175 19893 ft 360 kts 337°
2026-04-22 12:21 48.48220 15.95486 20465 ft 363 kts 337°
2026-04-22 12:21 48.50492 15.93781 21027 ft 367 kts 337°
2026-04-22 12:22 48.52783 15.92059 21594 ft 370 kts 337°
2026-04-22 12:22 48.55064 15.90227 22141 ft 376 kts 331°
2026-04-22 12:22 48.57145 15.87774 22684 ft 384 kts 320°
2026-04-22 12:22 48.58897 15.84680 23222 ft 393 kts 309°
2026-04-22 12:23 48.60439 15.81249 23752 ft 396 kts 308°
2026-04-22 12:23 48.61468 15.78960 24043 ft 398 kts 308°
2026-04-22 12:23 48.63030 15.75497 24501 ft 400 kts 308°
2026-04-22 12:23 48.64605 15.72000 24941 ft 402 kts 308°
2026-04-22 12:24 48.66183 15.68493 25374 ft 405 kts 308°
2026-04-22 12:24 48.67767 15.64962 25785 ft 407 kts 308°
2026-04-22 12:24 48.69360 15.61409 26199 ft 409 kts 308°
2026-04-22 12:24 48.70861 15.57717 26588 ft 414 kts 303°
2026-04-22 12:25 48.72265 15.53900 26976 ft 416 kts 303°
2026-04-22 12:25 48.73672 15.50063 27372 ft 418 kts 303°
2026-04-22 12:25 48.75085 15.46202 27768 ft 420 kts 303°
2026-04-22 12:25 48.76507 15.42310 28129 ft 422 kts 303°
2026-04-22 12:26 48.77932 15.38403 28505 ft 424 kts 303°
2026-04-22 12:26 48.79360 15.34476 28870 ft 427 kts 302°
2026-04-22 12:26 48.80862 15.30577 29216 ft 426 kts 308°
2026-04-22 12:26 48.82568 15.26970 29554 ft 427 kts 310°
2026-04-22 12:27 48.84314 15.23307 29893 ft 429 kts 309°
2026-04-22 12:27 48.86064 15.19613 30252 ft 432 kts 309°
2026-04-22 12:27 48.87819 15.15895 30506 ft 434 kts 309°
2026-04-22 12:27 48.89577 15.12153 30765 ft 436 kts 309°
2026-04-22 12:28 48.91326 15.08377 30999 ft 438 kts 308°
2026-04-22 12:28 48.93058 15.04565 31241 ft 440 kts 308°
2026-04-22 12:28 48.94786 15.00717 31485 ft 441 kts 308°
2026-04-22 12:28 48.96515 14.96844 31755 ft 442 kts 308°
2026-04-22 12:29 48.98238 14.92981 32094 ft 441 kts 308°
2026-04-22 12:29 48.99960 14.89127 32424 ft 440 kts 308°
2026-04-22 12:29 49.01687 14.85269 32720 ft 441 kts 308°
2026-04-22 12:29 49.03421 14.81399 32998 ft 441 kts 308°
2026-04-22 12:30 49.06880 14.73671 33656 ft 440 kts 308°
2026-04-22 12:30 49.08604 14.69815 33955 ft 440 kts 308°
2026-04-22 12:30 49.10326 14.65959 34303 ft 439 kts 308°
2026-04-22 12:31 49.12038 14.62115 34592 ft 438 kts 307°
2026-04-22 12:31 49.13749 14.58257 34842 ft 438 kts 307°
2026-04-22 12:31 49.15449 14.54412 35078 ft 438 kts 307°
2026-04-22 12:31 49.17151 14.50557 35314 ft 438 kts 307°
2026-04-22 12:32 49.18859 14.46691 35533 ft 438 kts 307°
2026-04-22 12:32 49.22272 14.38965 35975 ft 438 kts 307°
2026-04-22 12:32 49.23955 14.35155 36181 ft 438 kts 307°
2026-04-22 12:33 49.27343 14.27446 36282 ft 433 kts 307°
2026-04-22 12:33 49.30685 14.19797 36282 ft 431 kts 307°
2026-04-22 12:34 49.34027 14.12155 36282 ft 432 kts 307°
2026-04-22 12:34 49.37379 14.04478 36283 ft 433 kts 307°
2026-04-22 12:35 49.40727 13.96785 36288 ft 433 kts 307°
2026-04-22 12:35 49.44063 13.89075 36281 ft 433 kts 307°
2026-04-22 12:36 49.47385 13.81350 36281 ft 433 kts 307°
2026-04-22 12:36 49.50688 13.73681 36291 ft 432 kts 307°
2026-04-22 12:37 49.54013 13.65951 36290 ft 432 kts 307°
2026-04-22 12:37 49.57329 13.58220 36298 ft 432 kts 307°
2026-04-22 12:38 49.60640 13.50471 36283 ft 432 kts 306°
2026-04-22 12:38 49.63936 13.42716 36296 ft 432 kts 306°
2026-04-22 12:39 49.68880 13.31058 36296 ft 433 kts 306°
2026-04-22 12:40 49.72175 13.23261 36294 ft 433 kts 306°
2026-04-22 12:40 49.75477 13.15447 36295 ft 434 kts 306°
2026-04-22 12:41 49.78741 13.07675 36298 ft 434 kts 306°
2026-04-22 12:41 49.82025 12.99819 36302 ft 434 kts 306°
2026-04-22 12:42 49.85305 12.91958 36301 ft 434 kts 306°
2026-04-22 12:42 49.88582 12.84093 36303 ft 434 kts 306°
2026-04-22 12:43 49.91851 12.76219 36290 ft 434 kts 306°
2026-04-22 12:43 49.95113 12.68333 36295 ft 434 kts 306°
2026-04-22 12:44 49.98371 12.60430 36288 ft 434 kts 306°
2026-04-22 12:44 50.01625 12.52514 36291 ft 435 kts 306°
2026-04-22 12:45 50.04879 12.44579 36294 ft 435 kts 306°
2026-04-22 12:45 50.07511 12.36078 36288 ft 440 kts 292°
2026-04-22 12:46 50.09483 12.27044 36300 ft 440 kts 292°
2026-04-22 12:46 50.11456 12.17961 36530 ft 445 kts 292°
2026-04-22 12:46 50.12448 12.13384 36712 ft 446 kts 292°
2026-04-22 12:47 50.13439 12.08804 36925 ft 446 kts 291°
2026-04-22 12:47 50.14411 12.04288 37111 ft 446 kts 291°
2026-04-22 12:47 50.15396 11.99709 37313 ft 446 kts 291°
2026-04-22 12:47 50.16384 11.95121 37487 ft 446 kts 291°
2026-04-22 12:48 50.17368 11.90535 37686 ft 446 kts 291°
2026-04-22 12:48 50.18352 11.85942 37877 ft 446 kts 291°
2026-04-22 12:48 50.19331 11.81358 38062 ft 446 kts 291°
2026-04-22 12:48 50.20306 11.76777 38250 ft 445 kts 291°
2026-04-22 12:49 50.21281 11.72173 38327 ft 446 kts 291°
2026-04-22 12:49 50.23222 11.62968 38330 ft 446 kts 291°
2026-04-22 12:50 50.25161 11.53752 38318 ft 446 kts 291°
2026-04-22 12:50 50.27096 11.44555 38330 ft 446 kts 291°
2026-04-22 12:51 50.29034 11.35331 38334 ft 446 kts 291°
2026-04-22 12:51 50.30945 11.26099 38326 ft 446 kts 291°
2026-04-22 12:52 50.32842 11.16859 38327 ft 446 kts 291°
2026-04-22 12:52 50.34746 11.07612 38313 ft 446 kts 291°
2026-04-22 12:53 50.36634 10.98433 38323 ft 446 kts 291°
2026-04-22 12:53 50.38525 10.89168 38330 ft 446 kts 291°
2026-04-22 12:54 50.40408 10.79899 38327 ft 446 kts 291°
2026-04-22 12:54 50.42283 10.70618 38338 ft 446 kts 290°
2026-04-22 12:55 50.44153 10.61331 38323 ft 446 kts 290°
2026-04-22 12:55 50.46009 10.52036 38331 ft 446 kts 290°
2026-04-22 12:56 50.47867 10.42745 38339 ft 446 kts 290°
2026-04-22 12:56 50.49731 10.33465 38342 ft 446 kts 290°
2026-04-22 12:57 50.51592 10.24179 38323 ft 446 kts 290°
2026-04-22 12:57 50.53444 10.14880 38337 ft 445 kts 290°
2026-04-22 12:58 50.55290 10.05576 38348 ft 445 kts 290°
2026-04-22 12:58 50.57129 9.96270 38352 ft 445 kts 290°
2026-04-22 12:59 50.58961 9.86960 38351 ft 446 kts 290°
2026-04-22 12:59 50.60781 9.77628 38333 ft 445 kts 290°
2026-04-22 13:00 50.62589 9.68291 38338 ft 445 kts 290°
2026-04-22 13:00 50.64387 9.59021 38346 ft 445 kts 290°
2026-04-22 13:01 50.66182 9.49688 38346 ft 445 kts 290°
2026-04-22 13:01 50.67966 9.40342 38347 ft 445 kts 290°
2026-04-22 13:02 50.69749 9.31002 38338 ft 445 kts 290°
2026-04-22 13:02 50.71518 9.21640 38346 ft 445 kts 290°
2026-04-22 13:03 50.73469 9.12398 38345 ft 443 kts 294°
2026-04-22 13:03 50.75720 9.03351 38351 ft 442 kts 295°
2026-04-22 13:04 50.77971 8.94323 38357 ft 442 kts 294°
2026-04-22 13:04 50.80133 8.85232 38353 ft 442 kts 293°
2026-04-22 13:05 50.82247 8.76092 38359 ft 443 kts 293°
2026-04-22 13:05 50.84367 8.66930 38360 ft 443 kts 293°
2026-04-22 13:06 50.86493 8.57782 38359 ft 443 kts 293°
2026-04-22 13:06 50.88619 8.48628 38341 ft 443 kts 293°
2026-04-22 13:07 50.90376 8.41020 38348 ft 442 kts 293°
2026-04-22 13:07 50.92474 8.31864 38345 ft 442 kts 293°
2026-04-22 13:08 50.94905 8.21221 38345 ft 441 kts 293°
2026-04-22 13:08 50.96654 8.13549 38343 ft 441 kts 293°
2026-04-22 13:09 50.98737 8.04392 38349 ft 441 kts 293°
2026-04-22 13:09 51.00806 7.95229 38339 ft 441 kts 293°
2026-04-22 13:10 51.02866 7.86046 38339 ft 441 kts 292°
2026-04-22 13:10 51.04916 7.76892 38346 ft 440 kts 292°
2026-04-22 13:11 51.06966 7.67711 38346 ft 440 kts 292°
2026-04-22 13:11 51.09003 7.58533 38337 ft 440 kts 292°
2026-04-22 13:12 51.11013 7.49412 38341 ft 440 kts 292°
2026-04-22 13:12 51.13033 7.40209 38349 ft 440 kts 292°
2026-04-22 13:13 51.15044 7.31014 38353 ft 440 kts 292°
2026-04-22 13:13 51.17051 7.21784 38354 ft 440 kts 292°
2026-04-22 13:14 51.19057 7.12571 38330 ft 440 kts 292°
2026-04-22 13:14 51.21054 7.03344 38345 ft 440 kts 292°
2026-04-22 13:15 51.23043 6.94085 38359 ft 441 kts 292°
2026-04-22 13:15 51.25022 6.84831 38359 ft 441 kts 292°
2026-04-22 13:16 51.26981 6.75616 38362 ft 440 kts 292°
2026-04-22 13:16 51.28949 6.66357 38353 ft 440 kts 291°
2026-04-22 13:17 51.30905 6.57086 38361 ft 440 kts 291°
2026-04-22 13:17 51.32847 6.47804 38362 ft 440 kts 291°
2026-04-22 13:18 51.34785 6.38516 38372 ft 440 kts 291°
2026-04-22 13:18 51.36721 6.29233 38379 ft 440 kts 291°
2026-04-22 13:19 51.38642 6.19998 38367 ft 440 kts 291°
2026-04-22 13:19 51.40561 6.10704 38385 ft 439 kts 291°
2026-04-22 13:20 51.42475 6.01353 38386 ft 439 kts 291°
2026-04-22 13:20 51.44377 5.92041 38384 ft 439 kts 291°
2026-04-22 13:21 51.46255 5.82789 38383 ft 439 kts 291°
2026-04-22 13:21 51.48143 5.73489 38372 ft 439 kts 290°
2026-04-22 13:22 51.50019 5.64165 38389 ft 439 kts 290°
2026-04-22 13:22 51.51883 5.54843 38372 ft 438 kts 290°
2026-04-22 13:23 51.53744 5.45537 38367 ft 438 kts 290°
2026-04-22 13:23 51.55593 5.36211 38370 ft 438 kts 290°
2026-04-22 13:24 51.57440 5.26879 38357 ft 438 kts 290°
2026-04-22 13:24 51.59281 5.17539 38400 ft 437 kts 290°
2026-04-22 13:25 51.61102 5.08228 38405 ft 435 kts 290°
2026-04-22 13:25 51.62911 4.98940 38405 ft 435 kts 290°
2026-04-22 13:26 51.64714 4.89644 38403 ft 434 kts 290°
2026-04-22 13:26 51.66500 4.80356 38382 ft 434 kts 290°
2026-04-22 13:27 51.68282 4.71071 38392 ft 433 kts 290°
2026-04-22 13:27 51.70060 4.61797 38385 ft 433 kts 290°
2026-04-22 13:28 51.71823 4.52524 38383 ft 432 kts 289°
2026-04-22 13:28 51.73570 4.43237 38382 ft 432 kts 289°
2026-04-22 13:29 51.75317 4.33959 38384 ft 432 kts 289°
2026-04-22 13:29 51.77063 4.24664 38383 ft 432 kts 289°
2026-04-22 13:30 51.78798 4.15362 38378 ft 433 kts 289°
2026-04-22 13:30 51.80530 4.06045 38380 ft 433 kts 289°
2026-04-22 13:31 51.82236 3.96785 38375 ft 433 kts 289°
2026-04-22 13:31 51.83950 3.87434 37096 ft 438 kts 289°
2026-04-22 13:31 51.84829 3.82638 35837 ft 449 kts 289°
2026-04-22 13:32 51.85710 3.77806 35193 ft 446 kts 289°
2026-04-22 13:32 51.86579 3.73013 34622 ft 441 kts 289°
2026-04-22 13:32 51.87437 3.68269 34050 ft 436 kts 289°
2026-04-22 13:32 51.88282 3.63590 33413 ft 432 kts 289°
2026-04-22 13:33 51.89122 3.58931 32846 ft 428 kts 289°
2026-04-22 13:33 51.89948 3.54339 32304 ft 423 kts 289°
2026-04-22 13:33 51.90764 3.49789 31811 ft 418 kts 289°
2026-04-22 13:33 51.91567 3.45297 31316 ft 413 kts 289°
2026-04-22 13:34 51.92363 3.40849 30836 ft 409 kts 289°
2026-04-22 13:34 51.93148 3.36449 30348 ft 405 kts 288°
2026-04-22 13:34 51.93923 3.32095 29871 ft 399 kts 288°
2026-04-22 13:34 51.94683 3.27797 29423 ft 394 kts 288°
2026-04-22 13:35 51.95432 3.23552 29002 ft 389 kts 288°
2026-04-22 13:35 51.96107 3.19328 28578 ft 386 kts 282°
2026-04-22 13:35 51.96342 3.15003 28192 ft 385 kts 271°
2026-04-22 13:35 51.96128 3.10668 27917 ft 388 kts 266°
2026-04-22 13:36 51.95842 3.06318 27605 ft 387 kts 266°
2026-04-22 13:36 51.95563 3.01985 27305 ft 385 kts 265°
2026-04-22 13:36 51.95288 2.97673 27000 ft 384 kts 265°
2026-04-22 13:36 51.95010 2.93365 26698 ft 384 kts 265°
2026-04-22 13:37 51.94730 2.89063 26401 ft 385 kts 265°
2026-04-22 13:37 51.94446 2.84754 26091 ft 383 kts 264°
2026-04-22 13:37 51.94160 2.80470 25796 ft 380 kts 264°
2026-04-22 13:37 51.93871 2.76228 25500 ft 380 kts 264°
2026-04-22 13:38 51.93578 2.71974 25196 ft 380 kts 264°
2026-04-22 13:38 51.92997 2.63481 24603 ft 377 kts 263°
2026-04-22 13:38 51.92713 2.59314 24310 ft 376 kts 263°
2026-04-22 13:39 51.92427 2.55116 24013 ft 375 kts 263°
2026-04-22 13:39 51.92139 2.50921 23680 ft 374 kts 263°
2026-04-22 13:39 51.91848 2.46739 23393 ft 372 kts 263°
2026-04-22 13:39 51.91556 2.42583 23102 ft 371 kts 262°
2026-04-22 13:40 51.91263 2.38462 22808 ft 366 kts 262°
2026-04-22 13:40 51.90971 2.34368 22523 ft 365 kts 262°
2026-04-22 13:40 51.90711 2.30276 22212 ft 365 kts 264°
2026-04-22 13:40 51.90559 2.26178 21805 ft 363 kts 266°
2026-04-22 13:41 51.90477 2.22097 21449 ft 361 kts 268°
2026-04-22 13:41 51.90422 2.18042 21078 ft 359 kts 268°
2026-04-22 13:41 51.90368 2.14004 20709 ft 358 kts 267°
2026-04-22 13:41 51.90301 2.09982 20346 ft 363 kts 266°
2026-04-22 13:42 51.90209 2.05708 19964 ft 392 kts 266°
2026-04-22 13:42 51.90101 2.01247 19553 ft 399 kts 266°
2026-04-22 13:42 51.89986 1.96747 19141 ft 399 kts 266°
2026-04-22 13:42 51.89896 1.92269 18725 ft 398 kts 270°
2026-04-22 13:43 51.90299 1.87840 18280 ft 397 kts 285°
2026-04-22 13:43 51.91364 1.83731 17954 ft 397 kts 298°
2026-04-22 13:43 51.92676 1.79764 17595 ft 407 kts 298°
2026-04-22 13:43 51.94012 1.75728 17239 ft 415 kts 298°
2026-04-22 13:44 51.95394 1.71547 16863 ft 416 kts 298°
2026-04-22 13:44 51.96739 1.67468 16499 ft 414 kts 298°
2026-04-22 13:44 51.98085 1.63377 16135 ft 411 kts 298°
2026-04-22 13:44 51.99421 1.59299 15778 ft 408 kts 298°
2026-04-22 13:45 52.00754 1.55232 15409 ft 407 kts 298°
2026-04-22 13:45 52.02077 1.51190 15046 ft 405 kts 298°
2026-04-22 13:45 52.03396 1.47147 14691 ft 404 kts 298°
2026-04-22 13:45 52.04702 1.43133 14335 ft 401 kts 297°
2026-04-22 13:46 52.06001 1.39134 13959 ft 397 kts 297°
2026-04-22 13:46 52.07282 1.35183 13600 ft 394 kts 297°
2026-04-22 13:46 52.08560 1.31239 13250 ft 392 kts 297°
2026-04-22 13:46 52.09828 1.27324 12906 ft 390 kts 297°
2026-04-22 13:47 52.10904 1.23303 12560 ft 387 kts 284°
2026-04-22 13:47 52.11255 1.18985 12230 ft 384 kts 266°
2026-04-22 13:47 52.10840 1.14733 11951 ft 380 kts 252°
2026-04-22 13:47 52.10151 1.10589 11659 ft 379 kts 252°
2026-04-22 13:48 52.09460 1.06455 11373 ft 378 kts 252°
2026-04-22 13:48 52.08771 1.02344 11082 ft 376 kts 252°
2026-04-22 13:48 52.08085 0.98250 10793 ft 375 kts 252°
2026-04-22 13:48 52.07401 0.94170 10509 ft 373 kts 252°
2026-04-22 13:49 52.06720 0.90116 10345 ft 371 kts 252°
2026-04-22 13:49 52.06038 0.86065 10363 ft 371 kts 252°
2026-04-22 13:49 52.05356 0.82024 10367 ft 371 kts 251°
2026-04-22 13:49 52.04673 0.77977 10360 ft 372 kts 252°
2026-04-22 13:50 52.04220 0.75299 10364 ft 371 kts 251°
2026-04-22 13:50 52.03302 0.69889 10363 ft 371 kts 252°
2026-04-22 13:50 52.02622 0.65894 10359 ft 372 kts 252°
2026-04-22 13:50 52.01935 0.61872 10360 ft 372 kts 251°
2026-04-22 13:51 52.01241 0.57798 10358 ft 372 kts 252°
2026-04-22 13:51 52.00573 0.53746 10355 ft 372 kts 252°
2026-04-22 13:51 51.99903 0.49702 10358 ft 372 kts 252°
2026-04-22 13:51 51.99241 0.45646 10357 ft 372 kts 252°
2026-04-22 13:52 51.98585 0.41578 10355 ft 372 kts 252°
2026-04-22 13:52 51.98151 0.38902 10356 ft 372 kts 252°
2026-04-22 13:52 51.97490 0.34844 10356 ft 371 kts 252°
2026-04-22 13:52 51.96801 0.30811 10355 ft 371 kts 251°
2026-04-22 13:53 51.96130 0.26894 10348 ft 351 kts 251°
2026-04-22 13:53 51.95498 0.23169 10352 ft 332 kts 251°
2026-04-22 13:53 51.94904 0.19649 10352 ft 315 kts 251°
2026-04-22 13:53 51.94339 0.16314 10352 ft 299 kts 250°
2026-04-22 13:54 51.93808 0.13098 10354 ft 293 kts 251°
2026-04-22 13:54 51.93280 0.09907 10355 ft 292 kts 251°
2026-04-22 13:54 51.92760 0.06727 10242 ft 291 kts 251°
2026-04-22 13:54 51.92240 0.03571 9851 ft 289 kts 252°
2026-04-22 13:55 51.91718 0.00440 9494 ft 287 kts 251°
2026-04-22 13:55 51.91203 -0.02636 9128 ft 286 kts 251°
2026-04-22 13:55 51.90236 -0.06565 8607 ft 276 kts 227°
2026-04-22 13:55 51.89434 -0.08136 8338 ft 273 kts 223°
2026-04-22 13:56 51.88148 -0.10404 7936 ft 272 kts 221°
2026-04-22 13:56 51.86851 -0.12633 7574 ft 271 kts 221°
2026-04-22 13:56 51.85553 -0.14849 7198 ft 271 kts 221°
2026-04-22 13:56 51.84256 -0.17035 6826 ft 268 kts 217°
2026-04-22 13:57 51.82707 -0.18452 6607 ft 246 kts 187°
2026-04-22 13:57 51.81105 -0.18396 6551 ft 222 kts 156°
2026-04-22 13:57 51.79846 -0.17107 6261 ft 212 kts 134°
2026-04-22 13:57 51.78797 -0.15436 5912 ft 212 kts 131°
2026-04-22 13:58 51.77772 -0.13736 5599 ft 210 kts 131°
2026-04-22 13:58 51.76750 -0.12049 5282 ft 209 kts 131°
2026-04-22 13:58 51.75736 -0.10389 5056 ft 204 kts 131°
2026-04-22 13:58 51.74805 -0.08788 4898 ft 186 kts 120°
2026-04-22 13:59 51.74505 -0.06877 4685 ft 177 kts 84°
2026-04-22 13:59 51.74809 -0.04944 4432 ft 178 kts 75°
2026-04-22 13:59 51.75216 -0.03064 4224 ft 176 kts 73°
2026-04-22 13:59 51.75626 -0.01214 4015 ft 174 kts 73°
2026-04-22 14:00 51.76032 0.00642 3705 ft 176 kts 73°
2026-04-22 14:00 51.76437 0.02487 3494 ft 174 kts 73°
2026-04-22 14:00 51.76836 0.04324 3268 ft 173 kts 73°
2026-04-22 14:00 51.77223 0.06154 3071 ft 171 kts 69°
2026-04-22 14:01 51.77925 0.07698 2984 ft 173 kts 47°
2026-04-22 14:01 51.78802 0.08993 2783 ft 169 kts 47°
2026-04-22 14:01 51.79662 0.10267 2543 ft 166 kts 48°
2026-04-22 14:01 51.80501 0.11515 2323 ft 160 kts 48°
2026-04-22 14:02 51.81288 0.12686 2103 ft 147 kts 48°
2026-04-22 14:02 51.82015 0.13771 1905 ft 138 kts 48°
2026-04-22 14:02 51.82699 0.14793 1723 ft 131 kts 49°
2026-04-22 14:02 51.83348 0.15763 1547 ft 128 kts 49°
2026-04-22 14:03 51.84009 0.16753 1384 ft 128 kts 50°
2026-04-22 14:03 51.84659 0.17725 1207 ft 127 kts 48°
2026-04-22 14:03 51.85303 0.18690 1025 ft 129 kts 48°
2026-04-22 14:03 51.85964 0.19678 848 ft 126 kts 49°
2026-04-22 14:04 51.86615 0.20651 679 ft 130 kts 49°
2026-04-22 14:04 51.87271 0.21637 470 ft 129 kts 47°
2026-04-22 14:04 51.87911 0.22592 360 ft 120 kts 49°
2026-04-22 14:04 51.88447 0.23405 351 ft 84 kts 42°
2026-04-22 14:05 51.88750 0.23868 349 ft 34 kts 44°
2026-04-22 14:05 51.88815 0.23982 352 ft 6 kts 55°
2026-04-22 14:05 51.88884 0.24243 348 ft 17 kts 72°
2026-04-22 14:06 51.88916 0.24418 350 ft 16 kts 75°
2026-04-22 14:06 51.88910 0.24579 350 ft 14 kts 55°
2026-04-22 14:06 51.88982 0.24688 349 ft 15 kts 44°
2026-04-22 14:06 51.89061 0.24812 356 ft 16 kts 43°
2026-04-22 14:07 51.89148 0.24938 351 ft 17 kts 43°
2026-04-22 14:07 51.89232 0.25088 352 ft 18 kts 59°
2026-04-22 14:07 51.89203 0.25238 351 ft 16 kts 127°
2026-04-22 14:07 51.89154 0.25368 349 ft 12 kts 131°
2026-04-22 14:08 51.89137 0.25428 349 ft 5 kts 53°
2026-04-22 14:08 51.89169 0.25475 349 ft 6 kts 41°
2026-04-22 14:08 51.89175 0.25483 349 ft 2 kts 41°
2026-04-22 14:08 51.89177 0.25486 356 ft 0 kts 41°
2026-04-22 14:11 51.89183 0.25442 352 ft 0 kts 57°